Year,Month,Day,Hour,Minute,Value (Times are PST for temperature in C)
2009,05,23,00,00,10.40
2009,05,23,00,01,10.40
2009,05,23,00,02,10.40
2009,05,23,00,03,10.30
2009,05,23,00,04,10.30
2009,05,23,00,05,10.20
2009,05,23,00,06,10.20
2009,05,23,00,07,10.20
2009,05,23,00,08,10.10
2009,05,23,00,09,10.10
2009,05,23,00,10,10.10
2009,05,23,00,11,10.10
2009,05,23,00,12,10.00
2009,05,23,00,13,9.90
2009,05,23,00,14,9.90
2009,05,23,00,15,9.90
2009,05,23,00,16,9.90
2009,05,23,00,17,9.90
2009,05,23,00,18,9.80
2009,05,23,00,19,9.80
2009,05,23,00,20,9.80
2009,05,23,00,21,9.80
2009,05,23,00,22,9.80
2009,05,23,00,23,9.80
2009,05,23,00,24,9.80
2009,05,23,00,25,9.80
2009,05,23,00,26,9.80
2009,05,23,00,27,9.70
2009,05,23,00,28,9.70
2009,05,23,00,29,9.70
2009,05,23,00,30,9.70
2009,05,23,00,31,9.70
2009,05,23,00,32,9.60
2009,05,23,00,33,9.60
2009,05,23,00,34,9.50
2009,05,23,00,35,9.50
2009,05,23,00,36,9.40
2009,05,23,00,37,9.40
2009,05,23,00,38,9.40
2009,05,23,00,39,9.40
2009,05,23,00,40,9.40
2009,05,23,00,41,9.40
2009,05,23,00,42,9.50
2009,05,23,00,43,9.50
2009,05,23,00,44,9.50
2009,05,23,00,45,9.50
2009,05,23,00,46,9.50
2009,05,23,00,47,9.40
2009,05,23,00,48,9.40
2009,05,23,00,49,9.30
2009,05,23,00,50,9.30
2009,05,23,00,51,9.20
2009,05,23,00,52,9.20
2009,05,23,00,53,9.20
2009,05,23,00,54,9.20
2009,05,23,00,55,9.20
2009,05,23,00,56,9.20
2009,05,23,00,57,9.20
2009,05,23,00,58,9.20
2009,05,23,00,59,9.20
2009,05,23,01,00,9.20
2009,05,23,01,01,9.30
2009,05,23,01,02,9.30
2009,05,23,01,03,9.30
2009,05,23,01,04,9.30
2009,05,23,01,05,9.30
2009,05,23,01,06,9.30
2009,05,23,01,07,9.30
2009,05,23,01,08,9.40
2009,05,23,01,09,9.40
2009,05,23,01,10,9.50
2009,05,23,01,11,9.60
2009,05,23,01,12,9.70
2009,05,23,01,13,9.70
2009,05,23,01,14,9.80
2009,05,23,01,15,9.90
2009,05,23,01,16,9.90
2009,05,23,01,17,9.90
2009,05,23,01,18,9.90
2009,05,23,01,19,9.90
2009,05,23,01,20,9.90
2009,05,23,01,21,9.90
2009,05,23,01,22,9.90
2009,05,23,01,23,9.90
2009,05,23,01,24,9.90
2009,05,23,01,25,9.90
2009,05,23,01,26,9.90
2009,05,23,01,27,9.90
2009,05,23,01,28,9.80
2009,05,23,01,29,9.80
2009,05,23,01,30,9.80
2009,05,23,01,31,9.80
2009,05,23,01,32,9.80
2009,05,23,01,33,9.80
2009,05,23,01,34,9.80
2009,05,23,01,35,9.80
2009,05,23,01,36,9.80
2009,05,23,01,37,9.70
2009,05,23,01,38,9.70
2009,05,23,01,39,9.70
2009,05,23,01,40,9.70
2009,05,23,01,41,9.70
2009,05,23,01,42,9.70
2009,05,23,01,43,9.70
2009,05,23,01,44,9.60
2009,05,23,01,45,9.60
2009,05,23,01,46,9.60
2009,05,23,01,47,9.60
2009,05,23,01,48,9.60
2009,05,23,01,49,9.50
2009,05,23,01,50,9.50
2009,05,23,01,51,9.50
2009,05,23,01,52,9.40
2009,05,23,01,53,9.40
2009,05,23,01,54,9.40
2009,05,23,01,55,9.40
2009,05,23,01,56,9.40
2009,05,23,01,57,9.30
2009,05,23,01,58,9.30
2009,05,23,01,59,9.30
2009,05,23,02,00,9.30
2009,05,23,02,01,9.30
2009,05,23,02,02,9.30
2009,05,23,02,03,9.30
2009,05,23,02,04,9.30
2009,05,23,02,05,9.30
2009,05,23,02,06,9.30
2009,05,23,02,07,9.30
2009,05,23,02,08,9.20
2009,05,23,02,09,9.20
2009,05,23,02,10,9.20
2009,05,23,02,11,9.20
2009,05,23,02,12,9.20
2009,05,23,02,13,9.20
2009,05,23,02,14,9.10
2009,05,23,02,15,9.10
2009,05,23,02,16,9.10
2009,05,23,02,17,9.00
2009,05,23,02,18,9.00
2009,05,23,02,19,9.00
2009,05,23,02,20,8.90
2009,05,23,02,21,8.90
2009,05,23,02,22,8.90
2009,05,23,02,23,8.90
2009,05,23,02,24,8.80
2009,05,23,02,25,8.80
2009,05,23,02,26,8.80
2009,05,23,02,27,8.80
2009,05,23,02,28,8.80
2009,05,23,02,29,8.80
2009,05,23,02,30,8.80
2009,05,23,02,31,8.70
2009,05,23,02,32,8.70
2009,05,23,02,33,8.70
2009,05,23,02,34,8.70
2009,05,23,02,35,8.70
2009,05,23,02,36,8.70
2009,05,23,02,37,8.70
2009,05,23,02,38,8.70
2009,05,23,02,39,8.60
2009,05,23,02,40,8.60
2009,05,23,02,41,8.60
2009,05,23,02,42,8.50
2009,05,23,02,43,8.50
2009,05,23,02,44,8.50
2009,05,23,02,45,8.50
2009,05,23,02,46,8.50
2009,05,23,02,47,8.40
2009,05,23,02,48,8.40
2009,05,23,02,49,8.40
2009,05,23,02,50,8.40
2009,05,23,02,51,8.40
2009,05,23,02,52,8.40
2009,05,23,02,53,8.40
2009,05,23,02,54,8.40
2009,05,23,02,55,8.40
2009,05,23,02,56,8.40
2009,05,23,02,57,8.40
2009,05,23,02,58,8.40
2009,05,23,02,59,8.40
2009,05,23,03,00,8.50
2009,05,23,03,01,8.40
2009,05,23,03,02,8.40
2009,05,23,03,03,8.40
2009,05,23,03,04,8.40
2009,05,23,03,05,8.40
2009,05,23,03,06,8.30
2009,05,23,03,07,8.30
2009,05,23,03,08,8.30
2009,05,23,03,09,8.20
2009,05,23,03,10,8.20
2009,05,23,03,11,8.20
2009,05,23,03,12,8.20
2009,05,23,03,13,8.20
2009,05,23,03,14,8.20
2009,05,23,03,15,8.20
2009,05,23,03,16,8.20
2009,05,23,03,17,8.20
2009,05,23,03,18,8.20
2009,05,23,03,19,8.20
2009,05,23,03,20,8.20
2009,05,23,03,21,8.20
2009,05,23,03,22,8.20
2009,05,23,03,23,8.20
2009,05,23,03,24,8.20
2009,05,23,03,25,8.20
2009,05,23,03,26,8.20
2009,05,23,03,27,8.20
2009,05,23,03,28,8.20
2009,05,23,03,29,8.20
2009,05,23,03,30,8.20
2009,05,23,03,31,8.20
2009,05,23,03,32,8.20
2009,05,23,03,33,8.20
2009,05,23,03,34,8.20
2009,05,23,03,35,8.20
2009,05,23,03,36,8.20
2009,05,23,03,37,8.20
2009,05,23,03,38,8.20
2009,05,23,03,39,8.20
2009,05,23,03,40,8.20
2009,05,23,03,41,8.20
2009,05,23,03,42,8.20
2009,05,23,03,43,8.20
2009,05,23,03,44,8.20
2009,05,23,03,45,8.20
2009,05,23,03,46,8.20
2009,05,23,03,47,8.20
2009,05,23,03,48,8.20
2009,05,23,03,49,8.20
2009,05,23,03,50,8.10
2009,05,23,03,51,8.10
2009,05,23,03,52,8.10
2009,05,23,03,53,8.10
2009,05,23,03,54,8.10
2009,05,23,03,55,8.10
2009,05,23,03,56,8.00
2009,05,23,03,57,8.00
2009,05,23,03,58,8.00
2009,05,23,03,59,8.00
2009,05,23,04,00,7.90
2009,05,23,04,01,7.90
2009,05,23,04,02,7.90
2009,05,23,04,03,7.90
2009,05,23,04,04,7.90
2009,05,23,04,05,7.80
2009,05,23,04,06,7.80
2009,05,23,04,07,7.90
2009,05,23,04,08,7.90
2009,05,23,04,09,7.90
2009,05,23,04,10,7.90
2009,05,23,04,11,7.90
2009,05,23,04,12,7.90
2009,05,23,04,13,7.90
2009,05,23,04,14,7.90
2009,05,23,04,15,7.90
2009,05,23,04,16,7.90
2009,05,23,04,17,7.90
2009,05,23,04,18,7.80
2009,05,23,04,19,7.80
2009,05,23,04,20,7.80
2009,05,23,04,21,7.80
2009,05,23,04,22,7.80
2009,05,23,04,23,7.80
2009,05,23,04,24,7.80
2009,05,23,04,25,7.80
2009,05,23,04,26,7.80
2009,05,23,04,27,7.70
2009,05,23,04,28,7.70
2009,05,23,04,29,7.60
2009,05,23,04,30,7.60
2009,05,23,04,31,7.60
2009,05,23,04,32,7.50
2009,05,23,04,33,7.50
2009,05,23,04,34,7.50
2009,05,23,04,35,7.40
2009,05,23,04,36,7.40
2009,05,23,04,37,7.40
2009,05,23,04,38,7.30
2009,05,23,04,39,7.30
2009,05,23,04,40,7.30
2009,05,23,04,41,7.30
2009,05,23,04,42,7.30
2009,05,23,04,43,7.30
2009,05,23,04,44,7.30
2009,05,23,04,45,7.30
2009,05,23,04,46,7.40
2009,05,23,04,47,7.40
2009,05,23,04,48,7.40
2009,05,23,04,49,7.40
2009,05,23,04,50,7.50
2009,05,23,04,51,7.50
2009,05,23,04,52,7.50
2009,05,23,04,53,7.50
2009,05,23,04,54,7.60
2009,05,23,04,55,7.60
2009,05,23,04,56,7.60
2009,05,23,04,57,7.60
2009,05,23,04,58,7.60
2009,05,23,04,59,7.60
2009,05,23,05,00,7.60
2009,05,23,05,01,7.60
2009,05,23,05,02,7.60
2009,05,23,05,03,7.60
2009,05,23,05,04,7.60
2009,05,23,05,05,7.60
2009,05,23,05,06,7.70
2009,05,23,05,07,7.70
2009,05,23,05,08,7.70
2009,05,23,05,09,7.70
2009,05,23,05,10,7.70
2009,05,23,05,11,7.60
2009,05,23,05,12,7.60
2009,05,23,05,13,7.60
2009,05,23,05,14,7.60
2009,05,23,05,15,7.60
2009,05,23,05,16,7.50
2009,05,23,05,17,7.50
2009,05,23,05,18,7.50
2009,05,23,05,19,7.50
2009,05,23,05,20,7.40
2009,05,23,05,21,7.40
2009,05,23,05,22,7.40
2009,05,23,05,23,7.40
2009,05,23,05,24,7.40
2009,05,23,05,25,7.40
2009,05,23,05,26,7.40
2009,05,23,05,27,7.40
2009,05,23,05,28,7.40
2009,05,23,05,29,7.40
2009,05,23,05,30,7.40
2009,05,23,05,31,7.40
2009,05,23,05,32,7.40
2009,05,23,05,33,7.40
2009,05,23,05,34,7.40
2009,05,23,05,35,7.40
2009,05,23,05,36,7.40
2009,05,23,05,37,7.30
2009,05,23,05,38,7.30
2009,05,23,05,39,7.30
2009,05,23,05,40,7.30
2009,05,23,05,41,7.30
2009,05,23,05,42,7.30
2009,05,23,05,43,7.30
2009,05,23,05,44,7.30
2009,05,23,05,45,7.30
2009,05,23,05,46,7.30
2009,05,23,05,47,7.30
2009,05,23,05,48,7.30
2009,05,23,05,49,7.30
2009,05,23,05,50,7.30
2009,05,23,05,51,7.30
2009,05,23,05,52,7.30
2009,05,23,05,53,7.30
2009,05,23,05,54,7.30
2009,05,23,05,55,7.30
2009,05,23,05,56,7.30
2009,05,23,05,57,7.30
2009,05,23,05,58,7.30
2009,05,23,05,59,7.40
2009,05,23,06,00,7.40
2009,05,23,06,01,7.40
2009,05,23,06,02,7.50
2009,05,23,06,03,7.50
2009,05,23,06,04,7.50
2009,05,23,06,05,7.50
2009,05,23,06,06,7.50
2009,05,23,06,07,7.50
2009,05,23,06,08,7.50
2009,05,23,06,09,7.50
2009,05,23,06,10,7.50
2009,05,23,06,11,7.50
2009,05,23,06,12,7.50
2009,05,23,06,13,7.60
2009,05,23,06,14,7.60
2009,05,23,06,15,7.60
2009,05,23,06,16,7.70
2009,05,23,06,17,7.70
2009,05,23,06,18,7.80
2009,05,23,06,19,7.80
2009,05,23,06,20,7.80
2009,05,23,06,21,7.90
2009,05,23,06,22,8.00
2009,05,23,06,23,8.10
2009,05,23,06,24,8.20
2009,05,23,06,25,8.30
2009,05,23,06,26,8.40
2009,05,23,06,27,8.60
2009,05,23,06,28,8.70
2009,05,23,06,29,8.80
2009,05,23,06,30,8.90
2009,05,23,06,31,9.00
2009,05,23,06,32,9.00
2009,05,23,06,33,9.10
2009,05,23,06,34,9.10
2009,05,23,06,35,9.20
2009,05,23,06,36,9.20
2009,05,23,06,37,9.20
2009,05,23,06,38,9.20
2009,05,23,06,39,9.20
2009,05,23,06,40,9.20
2009,05,23,06,41,9.20
2009,05,23,06,42,9.20
2009,05,23,06,43,9.20
2009,05,23,06,44,9.20
2009,05,23,06,45,9.20
2009,05,23,06,46,9.20
2009,05,23,06,47,9.20
2009,05,23,06,48,9.20
2009,05,23,06,49,9.20
2009,05,23,06,50,9.30
2009,05,23,06,51,9.30
2009,05,23,06,52,9.40
2009,05,23,06,53,9.40
2009,05,23,06,54,9.50
2009,05,23,06,55,9.50
2009,05,23,06,56,9.60
2009,05,23,06,57,9.70
2009,05,23,06,58,9.70
2009,05,23,06,59,9.70
2009,05,23,07,00,9.80
2009,05,23,07,01,9.90
2009,05,23,07,02,9.90
2009,05,23,07,03,10.00
2009,05,23,07,04,10.10
2009,05,23,07,05,10.10
2009,05,23,07,06,10.20
2009,05,23,07,07,10.30
2009,05,23,07,08,10.30
2009,05,23,07,09,10.40
2009,05,23,07,10,10.50
2009,05,23,07,11,10.60
2009,05,23,07,12,10.70
2009,05,23,07,13,10.80
2009,05,23,07,14,10.90
2009,05,23,07,15,11.00
2009,05,23,07,16,11.10
2009,05,23,07,17,11.20
2009,05,23,07,18,11.30
2009,05,23,07,19,11.40
2009,05,23,07,20,11.50
2009,05,23,07,21,11.60
2009,05,23,07,22,11.70
2009,05,23,07,23,11.80
2009,05,23,07,24,11.90
2009,05,23,07,25,12.00
2009,05,23,07,26,12.10
2009,05,23,07,27,12.10
2009,05,23,07,28,12.20
2009,05,23,07,29,12.30
2009,05,23,07,30,12.30
2009,05,23,07,31,12.30
2009,05,23,07,32,12.40
2009,05,23,07,33,12.40
2009,05,23,07,34,12.40
2009,05,23,07,35,12.50
2009,05,23,07,36,12.40
2009,05,23,07,37,12.40
2009,05,23,07,38,12.30
2009,05,23,07,39,12.30
2009,05,23,07,40,12.30
2009,05,23,07,41,12.20
2009,05,23,07,42,12.10
2009,05,23,07,43,12.10
2009,05,23,07,44,12.00
2009,05,23,07,45,11.90
2009,05,23,07,46,11.80
2009,05,23,07,47,11.80
2009,05,23,07,48,11.80
2009,05,23,07,49,11.80
2009,05,23,07,50,11.80
2009,05,23,07,51,11.80
2009,05,23,07,52,11.90
2009,05,23,07,53,11.90
2009,05,23,07,54,11.90
2009,05,23,07,55,11.90
2009,05,23,07,56,11.90
2009,05,23,07,57,11.80
2009,05,23,07,58,11.80
2009,05,23,07,59,11.80
2009,05,23,08,00,11.80
2009,05,23,08,01,11.90
2009,05,23,08,02,11.90
2009,05,23,08,03,11.90
2009,05,23,08,04,11.90
2009,05,23,08,05,11.80
2009,05,23,08,06,11.80
2009,05,23,08,07,11.80
2009,05,23,08,08,11.90
2009,05,23,08,09,11.90
2009,05,23,08,10,11.90
2009,05,23,08,11,12.00
2009,05,23,08,12,12.10
2009,05,23,08,13,12.10
2009,05,23,08,14,12.10
2009,05,23,08,15,12.10
2009,05,23,08,16,12.10
2009,05,23,08,17,12.10
2009,05,23,08,18,12.00
2009,05,23,08,19,12.00
2009,05,23,08,20,11.90
2009,05,23,08,21,11.90
2009,05,23,08,22,11.90
2009,05,23,08,23,11.90
2009,05,23,08,24,11.90
2009,05,23,08,25,12.00
2009,05,23,08,26,12.00
2009,05,23,08,27,12.00
2009,05,23,08,28,11.90
2009,05,23,08,29,11.80
2009,05,23,08,30,11.80
2009,05,23,08,31,11.80
2009,05,23,08,32,11.80
2009,05,23,08,33,11.80
2009,05,23,08,34,11.90
2009,05,23,08,35,11.90
2009,05,23,08,36,11.90
2009,05,23,08,37,11.80
2009,05,23,08,38,11.80
2009,05,23,08,39,11.70
2009,05,23,08,40,11.70
2009,05,23,08,41,11.70
2009,05,23,08,42,11.70
2009,05,23,08,43,11.70
2009,05,23,08,44,11.80
2009,05,23,08,45,11.80
2009,05,23,08,46,11.90
2009,05,23,08,47,11.90
2009,05,23,08,48,11.90
2009,05,23,08,49,11.90
2009,05,23,08,50,11.90
2009,05,23,08,51,11.80
2009,05,23,08,52,11.70
2009,05,23,08,53,11.70
2009,05,23,08,54,11.70
2009,05,23,08,55,11.60
2009,05,23,08,56,11.60
2009,05,23,08,57,11.60
2009,05,23,08,58,11.60
2009,05,23,08,59,11.60
2009,05,23,09,00,11.60
2009,05,23,09,01,11.60
2009,05,23,09,02,11.60
2009,05,23,09,03,11.70
2009,05,23,09,04,11.70
2009,05,23,09,05,11.80
2009,05,23,09,06,11.90
2009,05,23,09,07,11.90
2009,05,23,09,08,12.00
2009,05,23,09,09,12.00
2009,05,23,09,10,12.00
2009,05,23,09,11,12.00
2009,05,23,09,12,12.10
2009,05,23,09,13,12.20
2009,05,23,09,14,12.20
2009,05,23,09,15,12.30
2009,05,23,09,16,12.30
2009,05,23,09,17,12.20
2009,05,23,09,18,12.10
2009,05,23,09,19,12.10
2009,05,23,09,20,12.10
2009,05,23,09,21,12.10
2009,05,23,09,22,12.10
2009,05,23,09,23,12.20
2009,05,23,09,24,12.30
2009,05,23,09,25,12.30
2009,05,23,09,26,12.30
2009,05,23,09,27,12.30
2009,05,23,09,28,12.40
2009,05,23,09,29,12.40
2009,05,23,09,30,12.50
2009,05,23,09,31,12.60
2009,05,23,09,32,12.70
2009,05,23,09,33,12.70
2009,05,23,09,34,12.60
2009,05,23,09,35,12.40
2009,05,23,09,36,12.30
2009,05,23,09,37,12.20
2009,05,23,09,38,12.10
2009,05,23,09,39,12.00
2009,05,23,09,40,11.90
2009,05,23,09,41,12.00
2009,05,23,09,42,11.90
2009,05,23,09,43,11.80
2009,05,23,09,44,11.80
2009,05,23,09,45,11.80
2009,05,23,09,46,11.80
2009,05,23,09,47,11.70
2009,05,23,09,48,11.60
2009,05,23,09,49,11.60
2009,05,23,09,50,11.60
2009,05,23,09,51,11.60
2009,05,23,09,52,11.60
2009,05,23,09,53,11.60
2009,05,23,09,54,11.50
2009,05,23,09,55,11.40
2009,05,23,09,56,11.40
2009,05,23,09,57,11.40
2009,05,23,09,58,11.40
2009,05,23,09,59,11.60
2009,05,23,10,00,11.60
2009,05,23,10,01,11.60
2009,05,23,10,02,11.60
2009,05,23,10,03,11.70
2009,05,23,10,04,11.80
2009,05,23,10,05,11.70
2009,05,23,10,06,11.70
2009,05,23,10,07,11.60
2009,05,23,10,08,11.70
2009,05,23,10,09,11.80
2009,05,23,10,10,11.80
2009,05,23,10,11,11.80
2009,05,23,10,12,11.70
2009,05,23,10,13,11.60
2009,05,23,10,14,11.60
2009,05,23,10,15,11.60
2009,05,23,10,16,11.70
2009,05,23,10,17,11.70
2009,05,23,10,18,11.80
2009,05,23,10,19,11.80
2009,05,23,10,20,11.90
2009,05,23,10,21,12.00
2009,05,23,10,22,12.00
2009,05,23,10,23,12.00
2009,05,23,10,24,11.90
2009,05,23,10,25,11.90
2009,05,23,10,26,12.00
2009,05,23,10,27,11.90
2009,05,23,10,28,11.90
2009,05,23,10,29,11.90
2009,05,23,10,30,11.90
2009,05,23,10,31,11.90
2009,05,23,10,32,12.00
2009,05,23,10,33,12.00
2009,05,23,10,34,12.00
2009,05,23,10,35,12.00
2009,05,23,10,36,12.00
2009,05,23,10,37,12.00
2009,05,23,10,38,12.00
2009,05,23,10,39,12.00
2009,05,23,10,40,11.90
2009,05,23,10,41,11.90
2009,05,23,10,42,12.00
2009,05,23,10,43,11.90
2009,05,23,10,44,11.90
2009,05,23,10,45,11.90
2009,05,23,10,46,11.90
2009,05,23,10,47,12.00
2009,05,23,10,48,12.00
2009,05,23,10,49,12.10
2009,05,23,10,50,12.20
2009,05,23,10,51,12.30
2009,05,23,10,52,12.40
2009,05,23,10,53,12.50
2009,05,23,10,54,12.60
2009,05,23,10,55,12.70
2009,05,23,10,56,12.80
2009,05,23,10,57,12.80
2009,05,23,10,58,12.80
2009,05,23,10,59,12.90
2009,05,23,11,00,13.00
2009,05,23,11,01,13.10
2009,05,23,11,02,13.00
2009,05,23,11,03,12.90
2009,05,23,11,04,13.00
2009,05,23,11,05,13.00
2009,05,23,11,06,13.00
2009,05,23,11,07,13.00
2009,05,23,11,08,12.90
2009,05,23,11,09,12.90
2009,05,23,11,10,12.90
2009,05,23,11,11,13.00
2009,05,23,11,12,13.10
2009,05,23,11,13,13.10
2009,05,23,11,14,13.20
2009,05,23,11,15,13.20
2009,05,23,11,16,13.10
2009,05,23,11,17,13.10
2009,05,23,11,18,13.00
2009,05,23,11,19,13.00
2009,05,23,11,20,12.90
2009,05,23,11,21,12.80
2009,05,23,11,22,12.80
2009,05,23,11,23,12.60
2009,05,23,11,24,12.50
2009,05,23,11,25,12.40
2009,05,23,11,26,12.30
2009,05,23,11,27,12.30
2009,05,23,11,28,12.30
2009,05,23,11,29,12.30
2009,05,23,11,30,12.30
2009,05,23,11,31,12.30
2009,05,23,11,32,12.30
2009,05,23,11,33,12.30
2009,05,23,11,34,12.30
2009,05,23,11,35,12.40
2009,05,23,11,36,12.40
2009,05,23,11,37,12.40
2009,05,23,11,38,12.40
2009,05,23,11,39,12.50
2009,05,23,11,40,12.50
2009,05,23,11,41,12.40
2009,05,23,11,42,12.40
2009,05,23,11,43,12.40
2009,05,23,11,44,12.50
2009,05,23,11,45,12.50
2009,05,23,11,46,12.50
2009,05,23,11,47,12.50
2009,05,23,11,48,12.50
2009,05,23,11,49,12.50
2009,05,23,11,50,12.50
2009,05,23,11,51,12.50
2009,05,23,11,52,12.50
2009,05,23,11,53,12.50
2009,05,23,11,54,12.50
2009,05,23,11,55,12.40
2009,05,23,11,56,12.40
2009,05,23,11,57,12.50
2009,05,23,11,58,12.50
2009,05,23,11,59,12.50
2009,05,23,12,00,12.50
2009,05,23,12,01,12.60
2009,05,23,12,02,12.70
2009,05,23,12,03,12.70
2009,05,23,12,04,12.70
2009,05,23,12,05,12.70
2009,05,23,12,06,12.70
2009,05,23,12,07,12.60
2009,05,23,12,08,12.60
2009,05,23,12,09,12.60
2009,05,23,12,10,12.60
2009,05,23,12,11,12.50
2009,05,23,12,12,12.40
2009,05,23,12,13,12.40
2009,05,23,12,14,12.50
2009,05,23,12,15,12.50
2009,05,23,12,16,12.60
2009,05,23,12,17,12.70
2009,05,23,12,18,12.60
2009,05,23,12,19,12.60
2009,05,23,12,20,12.60
2009,05,23,12,21,12.70
2009,05,23,12,22,12.70
2009,05,23,12,23,12.70
2009,05,23,12,24,12.70
2009,05,23,12,25,12.80
2009,05,23,12,26,12.80
2009,05,23,12,27,12.90
2009,05,23,12,28,12.80
2009,05,23,12,29,12.80
2009,05,23,12,30,12.80
2009,05,23,12,31,12.80
2009,05,23,12,32,12.80
2009,05,23,12,33,12.80
2009,05,23,12,34,12.80
2009,05,23,12,35,12.80
2009,05,23,12,36,12.70
2009,05,23,12,37,12.80
2009,05,23,12,38,12.70
2009,05,23,12,39,12.70
2009,05,23,12,40,12.70
2009,05,23,12,41,12.60
2009,05,23,12,42,12.60
2009,05,23,12,43,12.70
2009,05,23,12,44,12.80
2009,05,23,12,45,12.80
2009,05,23,12,46,12.80
2009,05,23,12,47,12.80
2009,05,23,12,48,12.80
2009,05,23,12,49,12.80
2009,05,23,12,50,12.70
2009,05,23,12,51,12.70
2009,05,23,12,52,12.70
2009,05,23,12,53,12.70
2009,05,23,12,54,12.80
2009,05,23,12,55,12.80
2009,05,23,12,56,12.80
2009,05,23,12,57,12.80
2009,05,23,12,58,12.80
2009,05,23,12,59,12.80
2009,05,23,13,00,12.80
2009,05,23,13,01,12.80
2009,05,23,13,02,12.80
2009,05,23,13,03,12.80
2009,05,23,13,04,12.80
2009,05,23,13,05,12.80
2009,05,23,13,06,12.80
2009,05,23,13,07,12.80
2009,05,23,13,08,12.80
2009,05,23,13,09,12.90
2009,05,23,13,10,12.90
2009,05,23,13,11,12.90
2009,05,23,13,12,12.80
2009,05,23,13,13,12.80
2009,05,23,13,14,12.90
2009,05,23,13,15,12.90
2009,05,23,13,16,13.00
2009,05,23,13,17,13.00
2009,05,23,13,18,13.10
2009,05,23,13,19,13.10
2009,05,23,13,20,13.20
2009,05,23,13,21,13.20
2009,05,23,13,22,13.30
2009,05,23,13,23,13.30
2009,05,23,13,24,13.30
2009,05,23,13,25,13.30
2009,05,23,13,26,13.30
2009,05,23,13,27,13.30
2009,05,23,13,28,13.30
2009,05,23,13,29,13.30
2009,05,23,13,30,13.20
2009,05,23,13,31,13.10
2009,05,23,13,32,13.10
2009,05,23,13,33,13.10
2009,05,23,13,34,13.20
2009,05,23,13,35,13.20
2009,05,23,13,36,13.20
2009,05,23,13,37,13.30
2009,05,23,13,38,13.50
2009,05,23,13,39,13.60
2009,05,23,13,40,13.60
2009,05,23,13,41,13.60
2009,05,23,13,42,13.50
2009,05,23,13,43,13.40
2009,05,23,13,44,13.30
2009,05,23,13,45,13.30
2009,05,23,13,46,13.20
2009,05,23,13,47,13.20
2009,05,23,13,48,13.20
2009,05,23,13,49,13.30
2009,05,23,13,50,13.30
2009,05,23,13,51,13.30
2009,05,23,13,52,13.30
2009,05,23,13,53,13.10
2009,05,23,13,54,13.10
2009,05,23,13,55,13.10
2009,05,23,13,56,13.10
2009,05,23,13,57,13.10
2009,05,23,13,58,13.10
2009,05,23,13,59,13.10
2009,05,23,14,00,13.00
2009,05,23,14,01,13.00
2009,05,23,14,02,13.00
2009,05,23,14,03,13.00
2009,05,23,14,04,13.00
2009,05,23,14,05,13.00
2009,05,23,14,06,13.10
2009,05,23,14,07,13.10
2009,05,23,14,08,13.10
2009,05,23,14,09,13.10
2009,05,23,14,10,13.10
2009,05,23,14,11,13.20
2009,05,23,14,12,13.20
2009,05,23,14,13,13.10
2009,05,23,14,14,13.20
2009,05,23,14,15,13.20
2009,05,23,14,16,13.30
2009,05,23,14,17,13.40
2009,05,23,14,18,13.50
2009,05,23,14,19,13.60
2009,05,23,14,20,13.60
2009,05,23,14,21,13.70
2009,05,23,14,22,13.70
2009,05,23,14,23,13.80
2009,05,23,14,24,13.90
2009,05,23,14,25,14.00
2009,05,23,14,26,14.10
2009,05,23,14,27,14.10
2009,05,23,14,28,14.10
2009,05,23,14,29,14.20
2009,05,23,14,30,14.20
2009,05,23,14,31,14.30
2009,05,23,14,32,14.40
2009,05,23,14,33,14.40
2009,05,23,14,34,14.50
2009,05,23,14,35,14.40
2009,05,23,14,36,14.40
2009,05,23,14,37,14.40
2009,05,23,14,38,14.50
2009,05,23,14,39,14.50
2009,05,23,14,40,14.50
2009,05,23,14,41,14.50
2009,05,23,14,42,14.50
2009,05,23,14,43,14.50
2009,05,23,14,44,14.50
2009,05,23,14,45,14.50
2009,05,23,14,46,14.50
2009,05,23,14,47,14.40
2009,05,23,14,48,14.30
2009,05,23,14,49,14.20
2009,05,23,14,50,14.20
2009,05,23,14,51,14.10
2009,05,23,14,52,14.00
2009,05,23,14,53,14.00
2009,05,23,14,54,14.00
2009,05,23,14,55,14.00
2009,05,23,14,56,14.00
2009,05,23,14,57,14.10
2009,05,23,14,58,14.20
2009,05,23,14,59,14.30
2009,05,23,15,00,14.30
2009,05,23,15,01,14.30
2009,05,23,15,02,14.20
2009,05,23,15,03,14.20
2009,05,23,15,04,14.20
2009,05,23,15,05,14.20
2009,05,23,15,06,14.20
2009,05,23,15,07,14.20
2009,05,23,15,08,14.20
2009,05,23,15,09,14.20
2009,05,23,15,10,14.30
2009,05,23,15,11,14.40
2009,05,23,15,12,14.50
2009,05,23,15,13,14.60
2009,05,23,15,14,14.60
2009,05,23,15,15,14.70
2009,05,23,15,16,14.80
2009,05,23,15,17,14.80
2009,05,23,15,18,14.90
2009,05,23,15,19,15.00
2009,05,23,15,20,15.10
2009,05,23,15,21,15.20
2009,05,23,15,22,15.30
2009,05,23,15,23,15.30
2009,05,23,15,24,15.40
2009,05,23,15,25,15.60
2009,05,23,15,26,15.70
2009,05,23,15,27,15.90
2009,05,23,15,28,16.10
2009,05,23,15,29,16.10
2009,05,23,15,30,16.20
2009,05,23,15,31,16.30
2009,05,23,15,32,16.30
2009,05,23,15,33,16.30
2009,05,23,15,34,16.40
2009,05,23,15,35,16.40
2009,05,23,15,36,16.40
2009,05,23,15,37,16.60
2009,05,23,15,38,16.60
2009,05,23,15,39,16.70
2009,05,23,15,40,16.70
2009,05,23,15,41,16.80
2009,05,23,15,42,16.90
2009,05,23,15,43,17.00
2009,05,23,15,44,17.10
2009,05,23,15,45,17.20
2009,05,23,15,46,17.30
2009,05,23,15,47,17.40
2009,05,23,15,48,17.50
2009,05,23,15,49,17.60
2009,05,23,15,50,17.60
2009,05,23,15,51,17.70
2009,05,23,15,52,17.90
2009,05,23,15,53,18.10
2009,05,23,15,54,18.30
2009,05,23,15,55,18.50
2009,05,23,15,56,18.70
2009,05,23,15,57,18.80
2009,05,23,15,58,19.00
2009,05,23,15,59,19.20
2009,05,23,16,00,19.40
2009,05,23,16,01,19.60
2009,05,23,16,02,19.80
2009,05,23,16,03,20.10
2009,05,23,16,04,20.30
2009,05,23,16,05,20.40
2009,05,23,16,06,20.50
2009,05,23,16,07,20.60
2009,05,23,16,08,20.80
2009,05,23,16,09,21.00
2009,05,23,16,10,21.10
2009,05,23,16,11,21.20
2009,05,23,16,12,21.30
2009,05,23,16,13,21.30
2009,05,23,16,14,21.30
2009,05,23,16,15,21.30
2009,05,23,16,16,21.30
2009,05,23,16,17,21.20
2009,05,23,16,18,21.10
2009,05,23,16,19,21.10
2009,05,23,16,20,21.10
2009,05,23,16,21,21.20
2009,05,23,16,22,21.30
2009,05,23,16,23,21.30
2009,05,23,16,24,21.20
2009,05,23,16,25,21.20
2009,05,23,16,26,21.20
2009,05,23,16,27,21.10
2009,05,23,16,28,21.00
2009,05,23,16,29,21.00
2009,05,23,16,30,21.00
2009,05,23,16,31,21.00
2009,05,23,16,32,21.00
2009,05,23,16,33,20.90
2009,05,23,16,34,20.80
2009,05,23,16,35,20.80
2009,05,23,16,36,20.70
2009,05,23,16,37,20.60
2009,05,23,16,38,20.50
2009,05,23,16,39,20.40
2009,05,23,16,40,20.40
2009,05,23,16,41,20.30
2009,05,23,16,42,20.30
2009,05,23,16,43,20.30
2009,05,23,16,44,20.30
2009,05,23,16,45,20.40
2009,05,23,16,46,20.50
2009,05,23,16,47,20.50
2009,05,23,16,48,20.50
2009,05,23,16,49,20.40
2009,05,23,16,50,20.40
2009,05,23,16,51,20.40
2009,05,23,16,52,20.50
2009,05,23,16,53,20.60
2009,05,23,16,54,20.60
2009,05,23,16,55,20.60
2009,05,23,16,56,20.70
2009,05,23,16,57,20.70
2009,05,23,16,58,20.70
2009,05,23,16,59,20.60
2009,05,23,17,00,20.60
2009,05,23,17,01,20.60
2009,05,23,17,02,20.70
2009,05,23,17,03,20.70
2009,05,23,17,04,20.80
2009,05,23,17,05,20.80
2009,05,23,17,06,20.90
2009,05,23,17,07,20.90
2009,05,23,17,08,20.90
2009,05,23,17,09,20.90
2009,05,23,17,10,20.90
2009,05,23,17,11,20.90
2009,05,23,17,12,20.80
2009,05,23,17,13,20.60
2009,05,23,17,14,20.60
2009,05,23,17,15,20.60
2009,05,23,17,16,20.60
2009,05,23,17,17,20.60
2009,05,23,17,18,20.70
2009,05,23,17,19,20.80
2009,05,23,17,20,20.80
2009,05,23,17,21,20.80
2009,05,23,17,22,20.70
2009,05,23,17,23,20.70
2009,05,23,17,24,20.70
2009,05,23,17,25,20.70
2009,05,23,17,26,20.70
2009,05,23,17,27,20.70
2009,05,23,17,28,20.70
2009,05,23,17,29,20.70
2009,05,23,17,30,20.70
2009,05,23,17,31,20.70
2009,05,23,17,32,20.70
2009,05,23,17,33,20.70
2009,05,23,17,34,20.80
2009,05,23,17,35,20.80
2009,05,23,17,36,20.80
2009,05,23,17,37,20.80